sat.trackr.live / text

‹ back to catalog

STARLINK-3887

NORAD 52484 · 2022-049AK

PAYLOAD ACTIVE UNKNOWN

§ Identity

Operator
Country
US
Launch date
2022-05-06
Launch site
AFETR
Launch vehicle
Mass (kg)
RCS (m²)

Purposes: comms

External: N2YO · Heavens-Above · Gunter

§ Orbital elements

Epoch: 2026-05-25T04:45:11.183904Z

Period
95.44 min
Inclination
53.2142°
Eccentricity
0.0001259
Mean motion
15.08843220 rev/d
Perigee alt
538.9 km
Apogee alt
540.6 km
Semi-major
6,917.9 km
B*
9.1887e-5
RAAN
75.6589°
Arg perigee
73.2489°
Mean anomaly
286.8642°
Rev number
22,380

§ Raw data

STARLINK-38871 52484U 22049AK  26145.19804611  .00001175  00000+0  91887-4 0  99982 52484  53.2142  75.6589 0001259  73.2489 286.8642 15.08843220223806

JSON: /api/v1/satellites/52484 · /tle

For live sub-satellite position, see the globe view (requires WebGL).

§ Visibility from observer

Set your observer location to see the next 7 days of passes ≥ 10°. The values pass through the URL so the page stays shareable.

No JS? Fill the form by hand. The geolocation button needs JavaScript.